This is the latest recevied weather packets stored in our database for station/object IU2EBF-4. If no packets are shown the sender has not sent any weather packets the latest 10 day(s).
| Time | Temp. | Humidity | Pressure | Rain* | Wind** | Luminosity | Snow |
|---|---|---|---|---|---|---|---|
| 1776953446 | 17.78° C | 48% | 1045 hPa | - | - | - | - |
| 1776952722 | 18.33° C | 48% | 1045 hPa | - | - | - | - |
| 1776951997 | 18.33° C | 48% | 1045 hPa | - | - | - | - |
| 1776951272 | 18.89° C | 48% | 1045 hPa | - | - | - | - |
| 1776950547 | 18.89° C | 48% | 1045 hPa | - | - | - | - |
| 1776949822 | 18.89° C | 48% | 1045 hPa | - | - | - | - |
| 1776949097 | 19.44° C | 46% | 1046 hPa | - | - | - | - |
| 1776948415 | 20° C | 47% | 1046 hPa | - | - | - | - |
| 1776948373 | 20° C | 47% | 1046 hPa | - | - | - | - |
| 1776947648 | 19.44° C | 47% | 1046 hPa | - | - | - | - |
| 1776946923 | 19.44° C | 47% | 1046 hPa | - | - | - | - |
| 1776946234 | 19.44° C | 46% | 1046 hPa | - | - | - | - |
| 1776946198 | 19.44° C | 46% | 1046 hPa | - | - | - | - |
| 1776945473 | 18.89° C | 47% | 1046 hPa | - | - | - | - |
| 1776944748 | 19.44° C | 47% | 1046 hPa | - | - | - | - |
| 1776944024 | 17.78° C | 48% | 1046 hPa | - | - | - | - |
| 1776943299 | 17.78° C | 45% | 1046 hPa | - | - | - | - |
| 1776942574 | 18.33° C | 46% | 1046 hPa | - | - | - | - |
| 1776941849 | 17.78° C | 46% | 1046 hPa | - | - | - | - |
| 1776941124 | 19.44° C | 47% | 1046 hPa | - | - | - | - |
| 1776940399 | 17.78° C | 45% | 1046 hPa | - | - | - | - |
| 1776939674 | 16.67° C | 47% | 1046 hPa | - | - | - | - |
| 1776938950 | 17.78° C | 45% | 1046 hPa | - | - | - | - |
| 1776938225 | 16.67° C | 46% | 1046 hPa | - | - | - | - |
| 1776937500 | 17.78° C | 46% | 1046 hPa | - | - | - | - |
* Rain since midnight (hover to see other rain measurements)
** Current wind speed in m/s (hover to see current wind gust speed)